When you browse on this site, cookies collect data to enhance your experience and personalize the content and advertising you see.
Visit our Privacy Policy to learn more. By continuing to use the site, you agree to this use of cookies and data.
  • In Österreich
  • Länderverzeichnis
  • Für 7 Tage
  • Wassertemperatur
  • Satellitenkarten
  • Wetterkarte
  • News
  • Widgets
  • user-avatar
    Anmelden

    Stündliche Wetter Morohorovo

    Heute, 21 Juli, Sonntag

    Zeit Temperatur Niederschläge Wind Luftdruck Luftfeuchtigkeit
    00:00 +16°C° 0.1 mm 0 m/S 751 mmHg 85%
    01:00 +15°C° 0.1 mm 0 m/S 751 mmHg 86%
    02:00 +16°C° 0 mm 1 m/S 751 mmHg 84%
    03:00 +15°C° 0 mm 0 m/S 751 mmHg 85%
    04:00 +15°C° 0 mm 0 m/S 751 mmHg 85%
    05:00 +15°C° 0 mm 0 m/S 751 mmHg 86%
    06:00 +17°C° 0 mm 0 m/S 751 mmHg 79%
    07:00 +21°C° 0 mm 1 m/S 751 mmHg 73%
    08:00 +24°C° 0 mm 1 m/S 752 mmHg 67%
    09:00 +25°C° 0 mm 1 m/S 752 mmHg 61%
    10:00 +27°C° 0 mm 1 m/S 752 mmHg 56%
    11:00 +28°C° 0 mm 1 m/S 752 mmHg 50%
    12:00 +29°C° 0 mm 1 m/S 751 mmHg 49%
    13:00 +29°C° 0 mm 1 m/S 751 mmHg 47%
    14:00 +29°C° 0 mm 1 m/S 751 mmHg 46%
    15:00 +29°C° 0 mm 1 m/S 751 mmHg 48%
    16:00 +29°C° 0 mm 1 m/S 751 mmHg 49%
    17:00 +28°C° 0 mm 1 m/S 751 mmHg 51%
    18:00 +27°C° 0 mm 1 m/S 750 mmHg 58%
    19:00 +25°C° 0 mm 1 m/S 750 mmHg 65%
    20:00 +23°C° 0 mm 1 m/S 750 mmHg 72%
    21:00 +22°C° 0.1 mm 1 m/S 750 mmHg 74%
    22:00 +22°C° 0.1 mm 1 m/S 750 mmHg 75%
    23:00 +20°C° 0.1 mm 2 m/S 750 mmHg 77%

    Morgen, 22 Juli, Montag

    Zeit Temperatur Niederschläge Wind Luftdruck Luftfeuchtigkeit
    00:00 +20°C° 0.1 mm 1 m/S 750 mmHg 81%
    01:00 +20°C° 0.1 mm 1 m/S 750 mmHg 85%
    02:00 +20°C° 0.1 mm 1 m/S 750 mmHg 89%
    03:00 +19°C° 0.3 mm 1 m/S 749 mmHg 91%
    04:00 +19°C° 0.3 mm 1 m/S 749 mmHg 92%
    05:00 +19°C° 0.3 mm 1 m/S 749 mmHg 94%
    06:00 +19°C° 0.2 mm 2 m/S 749 mmHg 94%
    07:00 +19°C° 0.2 mm 2 m/S 749 mmHg 94%
    08:00 +19°C° 0.2 mm 3 m/S 749 mmHg 94%
    09:00 +19°C° 1.1 mm 2 m/S 749 mmHg 94%
    10:00 +19°C° 1.1 mm 2 m/S 750 mmHg 94%
    11:00 +20°C° 1.1 mm 1 m/S 750 mmHg 94%
    12:00 +20°C° 0.5 mm 2 m/S 750 mmHg 87%
    13:00 +23°C° 0.5 mm 2 m/S 750 mmHg 81%
    14:00 +24°C° 0.5 mm 3 m/S 750 mmHg 75%
    15:00 +24°C° 0.7 mm 3 m/S 750 mmHg 77%
    16:00 +22°C° 0.7 mm 3 m/S 749 mmHg 80%
    17:00 +22°C° 0.7 mm 4 m/S 749 mmHg 83%
    18:00 +21°C° 0.1 mm 3 m/S 749 mmHg 85%
    19:00 +20°C° 0.1 mm 3 m/S 749 mmHg 88%
    20:00 +19°C° 0.1 mm 3 m/S 749 mmHg 90%
    21:00 +18°C° 0 mm 3 m/S 750 mmHg 92%
    22:00 +17°C° 0 mm 3 m/S 750 mmHg 93%
    23:00 +17°C° 0 mm 3 m/S 750 mmHg 95%

    übermorgen, 23 Juli, Dienstag

    Zeit Temperatur Niederschläge Wind Luftdruck Luftfeuchtigkeit
    00:00 +16°C° 0 mm 3 m/S 750 mmHg 94%
    01:00 +14°C° 0 mm 3 m/S 750 mmHg 93%
    02:00 +14°C° 0 mm 3 m/S 750 mmHg 93%
    03:00 +13°C° 0 mm 3 m/S 750 mmHg 94%
    04:00 +13°C° 0 mm 3 m/S 750 mmHg 95%
    05:00 +12°C° 0 mm 3 m/S 750 mmHg 97%
    06:00 +13°C° 0 mm 3 m/S 750 mmHg 93%
    07:00 +14°C° 0 mm 3 m/S 749 mmHg 90%
    08:00 +15°C° 0 mm 4 m/S 749 mmHg 87%
    09:00 +17°C° 0 mm 4 m/S 749 mmHg 85%
    10:00 +17°C° 0 mm 4 m/S 750 mmHg 83%
    11:00 +18°C° 0 mm 4 m/S 750 mmHg 82%
    12:00 +19°C° 0 mm 4 m/S 749 mmHg 79%
    13:00 +19°C° 0 mm 4 m/S 749 mmHg 76%
    14:00 +20°C° 0 mm 4 m/S 749 mmHg 74%
    15:00 +20°C° 0 mm 3 m/S 749 mmHg 74%
    16:00 +20°C° 0 mm 3 m/S 749 mmHg 75%
    17:00 +20°C° 0 mm 3 m/S 749 mmHg 75%
    18:00 +19°C° 0 mm 2 m/S 749 mmHg 81%
    19:00 +18°C° 0 mm 2 m/S 748 mmHg 88%
    20:00 +18°C° 0 mm 1 m/S 748 mmHg 94%
    21:00 +17°C° 0 mm 2 m/S 748 mmHg 95%
    22:00 +16°C° 0 mm 2 m/S 749 mmHg 96%
    23:00 +16°C° 0 mm 2 m/S 749 mmHg 97%

    24 Juli, Mittwoch

    Zeit Temperatur Niederschläge Wind Luftdruck Luftfeuchtigkeit
    00:00 +15°C° 0 mm 2 m/S 749 mmHg 97%
    01:00 +15°C° 0 mm 2 m/S 749 mmHg 97%
    02:00 +15°C° 0 mm 2 m/S 749 mmHg 97%
    03:00 +15°C° 0 mm 2 m/S 749 mmHg 97%
    04:00 +15°C° 0 mm 2 m/S 749 mmHg 97%
    05:00 +15°C° 0 mm 2 m/S 749 mmHg 97%
    06:00 +17°C° 0 mm 2 m/S 749 mmHg 91%
    07:00 +18°C° 0 mm 2 m/S 749 mmHg 85%
    08:00 +20°C° 0 mm 3 m/S 749 mmHg 80%
    09:00 +22°C° 0 mm 3 m/S 750 mmHg 72%
    10:00 +24°C° 0 mm 3 m/S 750 mmHg 65%
    11:00 +26°C° 0 mm 4 m/S 750 mmHg 58%
    12:00 +26°C° 0 mm 4 m/S 750 mmHg 55%
    13:00 +27°C° 0 mm 4 m/S 750 mmHg 53%
    14:00 +27°C° 0 mm 4 m/S 749 mmHg 51%
    15:00 +27°C° 0 mm 4 m/S 750 mmHg 53%
    16:00 +27°C° 0 mm 4 m/S 750 mmHg 55%
    17:00 +27°C° 0 mm 4 m/S 750 mmHg 58%
    18:00 +25°C° 0 mm 3 m/S 750 mmHg 65%
    19:00 +22°C° 0 mm 3 m/S 750 mmHg 73%
    20:00 +20°C° 0 mm 2 m/S 750 mmHg 81%
    21:00 +19°C° 0 mm 2 m/S 750 mmHg 84%
    22:00 +18°C° 0 mm 2 m/S 751 mmHg 87%
    23:00 +17°C° 0 mm 2 m/S 751 mmHg 90%

    25 Juli, Donnerstag

    Zeit Temperatur Niederschläge Wind Luftdruck Luftfeuchtigkeit
    00:00 +17°C° 0 mm 2 m/S 751 mmHg 90%
    01:00 +16°C° 0 mm 2 m/S 751 mmHg 91%
    02:00 +16°C° 0 mm 2 m/S 751 mmHg 91%
    03:00 +16°C° 0 mm 2 m/S 752 mmHg 91%
    04:00 +16°C° 0 mm 2 m/S 752 mmHg 91%
    05:00 +15°C° 0 mm 2 m/S 752 mmHg 91%
    06:00 +17°C° 0 mm 2 m/S 752 mmHg 85%
    07:00 +19°C° 0 mm 2 m/S 752 mmHg 78%
    08:00 +21°C° 0 mm 2 m/S 753 mmHg 71%
    09:00 +24°C° 0 mm 3 m/S 753 mmHg 64%
    10:00 +25°C° 0 mm 3 m/S 753 mmHg 56%
    11:00 +27°C° 0 mm 4 m/S 753 mmHg 49%
    12:00 +27°C° 0 mm 4 m/S 753 mmHg 48%
    13:00 +28°C° 0 mm 4 m/S 752 mmHg 48%
    14:00 +28°C° 0 mm 4 m/S 752 mmHg 47%
    15:00 +28°C° 0 mm 4 m/S 752 mmHg 49%
    16:00 +28°C° 0 mm 3 m/S 752 mmHg 52%
    17:00 +28°C° 0 mm 3 m/S 752 mmHg 55%
    18:00 +26°C° 0 mm 3 m/S 752 mmHg 62%
    19:00 +24°C° 0 mm 3 m/S 752 mmHg 70%
    20:00 +21°C° 0 mm 2 m/S 752 mmHg 77%
    21:00 +20°C° 0 mm 2 m/S 752 mmHg 79%
    22:00 +18°C° 0 mm 2 m/S 752 mmHg 80%
    23:00 +17°C° 0 mm 2 m/S 752 mmHg 82%

    26 Juli, Freitag

    Zeit Temperatur Niederschläge Wind Luftdruck Luftfeuchtigkeit
    00:00 +17°C° 0 mm 2 m/S 752 mmHg 84%
    01:00 +17°C° 0 mm 2 m/S 752 mmHg 85%
    02:00 +16°C° 0 mm 2 m/S 752 mmHg 87%
    03:00 +16°C° 0 mm 2 m/S 752 mmHg 89%
    04:00 +16°C° 0 mm 2 m/S 752 mmHg 90%
    05:00 +16°C° 0 mm 2 m/S 752 mmHg 92%
    06:00 +18°C° 0 mm 2 m/S 752 mmHg 85%
    07:00 +20°C° 0 mm 2 m/S 752 mmHg 79%
    08:00 +22°C° 0 mm 3 m/S 752 mmHg 73%
    09:00 +24°C° 0 mm 3 m/S 752 mmHg 65%
    10:00 +26°C° 0 mm 3 m/S 752 mmHg 58%
    11:00 +27°C° 0 mm 3 m/S 752 mmHg 50%
    12:00 +28°C° 0 mm 3 m/S 752 mmHg 49%
    13:00 +28°C° 0 mm 3 m/S 752 mmHg 48%
    14:00 +29°C° 0 mm 3 m/S 751 mmHg 48%
    15:00 +29°C° 0 mm 3 m/S 751 mmHg 50%
    16:00 +28°C° 0 mm 3 m/S 751 mmHg 53%
    17:00 +28°C° 0 mm 2 m/S 751 mmHg 55%
    18:00 +26°C° 0 mm 2 m/S 751 mmHg 64%
    19:00 +24°C° 0 mm 2 m/S 751 mmHg 73%
    20:00 +21°C° 0 mm 2 m/S 751 mmHg 82%
    21:00 +21°C° 0 mm 2 m/S 751 mmHg 85%
    22:00 +20°C° 0 mm 2 m/S 751 mmHg 87%
    23:00 +19°C° 0 mm 2 m/S 751 mmHg 90%
    Mehr zeigen